Location: Hawaiian Village Mobile Home Park
(32.8359°N, 116.9792°W)
Time: 18:14:42
(UTC+00:00)

ADEOS - Pass Details

Date: 01 August 2021
Orbit: 792 x 795 km, 98.9° (Epoch: 22 September)

Event Time Altitude Azimuth Distance (km) Brightness Sun altitude
Rises 12:34:11 0° 19° (NNE) 3,300 7.5 -6.2°
Reaches altitude 10° 12:36:34 10° 24° (NNE) 2,366 6.9 -5.7°
Maximum altitude 12:41:40 53° 101° (E) 965 4.5 -4.7°
Drops below altitude 10° 12:46:44 10° 178° (S) 2,350 5.8 -3.8°
Sets 12:49:06 0° 183° (S) 3,275 6.5 -3.3°
